period_start,C,m1,H,J0,J1,J2,J3,J4,J5,JA,JB,JC,JD,JJ,JK,JN,#
2014-04-07 00:00:06,0.16,2.19,0.00,20.84,27.60,30.38,6.06,31.50,1006.85,2038.02,2671.40,2723.07,2945.47,350.19,323.38,24.82,0000 0000 0000 0000 000000
2014-04-07 00:01:06,0.19,2.19,0.00,20.84,27.60,30.40,6.02,31.33,1006.85,2038.02,2671.14,2723.01,2945.18,349.72,323.11,24.83,0000 0000 0000 0000 000000
2014-04-07 00:02:07,0.07,2.19,0.00,20.84,27.60,30.41,6.08,31.17,1006.86,2038.04,2671.03,2722.98,2945.06,349.77,323.15,24.83,0000 0000 0000 0000 000000
2014-04-07 00:03:07,0.08,2.19,0.00,20.83,27.60,30.39,6.13,31.33,1006.87,2038.05,2670.63,2722.58,2944.94,349.89,323.08,24.84,0000 0000 0000 0000 000000
2014-04-07 00:04:07,0.26,2.19,0.00,20.84,27.60,30.41,6.08,31.46,1006.87,2038.05,2670.23,2722.23,2944.57,350.75,323.51,24.84,0000 0000 0000 0000 000000
2014-04-07 00:05:07,0.21,2.19,0.00,20.84,27.60,30.42,6.03,31.13,1006.87,2038.03,2670.05,2722.08,2944.24,350.38,323.57,24.85,0000 0000 0000 0000 000000
2014-04-07 00:06:08,0.08,2.19,0.00,20.85,27.60,30.42,6.18,31.46,1006.88,2038.04,2669.64,2722.01,2944.08,349.76,322.74,24.86,0000 0000 0000 0000 000000
2014-04-07 00:07:08,0.15,2.19,0.00,20.83,27.60,30.41,6.10,31.46,1006.88,2038.04,2669.25,2721.66,2944.02,350.10,323.09,24.86,0000 0000 0000 0000 000000
2014-04-07 00:08:08,0.18,2.19,0.00,20.83,27.60,30.37,6.09,31.54,1006.90,2038.03,2669.04,2721.26,2943.74,350.38,323.58,24.87,0000 0000 0000 0000 000000
2014-04-07 00:09:08,0.20,2.19,0.00,20.82,27.60,30.38,5.88,31.13,1006.90,2038.03,2668.65,2721.09,2943.32,349.17,322.53,24.87,0000 0000 0000 0000 000000
2014-04-07 00:10:08,0.18,2.19,0.00,20.84,27.59,30.38,5.97,31.29,1006.92,2038.04,2668.25,2721.02,2943.12,349.75,322.63,24.88,0000 0000 0000 0000 000000
2014-04-07 00:11:09,0.11,2.20,0.00,20.84,27.58,30.39,6.05,31.38,1006.87,2038.07,2668.09,2720.93,2943.02,350.08,323.04,24.89,0000 0000 0000 0000 000000
2014-04-07 00:12:09,0.09,2.20,0.00,20.83,27.57,30.34,6.14,31.38,1006.98,2038.08,2667.83,2720.57,2942.89,350.73,323.93,24.89,0000 0000 0000 0000 000000
2014-04-07 00:13:09,0.20,2.20,0.00,20.83,27.57,30.38,6.07,31.21,1007.04,2038.05,2667.34,2720.23,2942.47,349.57,322.88,24.90,0000 0000 0000 0000 000000
2014-04-07 00:14:09,0.22,2.20,0.00,20.82,27.57,30.38,6.10,31.42,1007.07,2038.04,2667.13,2720.08,2942.18,350.02,323.32,24.90,0000 0000 0000 0000 000000
2014-04-07 00:15:10,0.10,2.20,0.00,20.82,27.57,30.38,5.99,31.33,1007.11,2038.06,2666.96,2720.01,2942.06,350.27,323.56,24.91,0000 0000 0000 0000 000000
2014-04-07 00:16:10,0.07,2.20,0.00,20.82,27.57,30.38,6.14,31.33,1007.15,2038.09,2666.45,2719.72,2941.97,350.15,323.47,24.91,0000 0000 0000 0000 000000
2014-04-07 00:17:10,0.25,2.20,0.00,20.83,27.57,30.42,6.03,31.33,1007.18,2038.05,2666.16,2719.33,2941.56,349.30,322.69,24.92,0000 0000 0000 0000 000000
2014-04-07 00:18:10,0.20,2.20,0.00,20.83,27.57,30.38,6.01,31.29,1007.20,2038.04,2665.84,2719.11,2941.20,349.33,322.71,24.93,0000 0000 0000 0000 000000
2014-04-07 00:19:10,0.15,2.20,0.00,20.83,27.57,30.40,6.22,31.50,1007.26,2038.04,2665.34,2719.03,2941.07,350.71,324.01,24.93,0000 0000 0000 0000 000000
2014-04-07 00:20:11,0.13,2.20,0.00,20.83,27.57,30.40,6.01,31.21,1007.24,2038.14,2665.12,2718.88,2941.00,349.80,322.90,24.94,0000 0000 0000 0000 000000
2014-04-07 00:21:11,0.18,2.20,0.00,20.82,27.57,30.35,6.18,31.33,1007.24,2038.16,2665.00,2718.44,2940.72,350.87,324.16,24.94,0000 0000 0000 0000 000000
2014-04-07 00:22:11,0.23,2.21,0.00,20.83,27.57,30.36,5.95,31.29,1007.28,2038.17,2664.56,2718.17,2940.30,349.72,323.17,24.95,0000 0000 0000 0000 000000
2014-04-07 00:23:11,0.24,2.21,0.00,20.83,27.56,30.39,5.95,31.46,1007.28,2038.16,2664.20,2718.06,2940.10,349.57,322.65,24.96,0000 0000 0000 0000 000000
2014-04-07 00:24:12,0.08,2.21,0.00,20.83,27.55,30.40,6.07,31.29,1007.29,2038.18,2664.05,2717.97,2940.01,350.90,323.92,24.96,0000 0000 0000 0000 000000
2014-04-07 00:25:12,0.09,2.21,0.00,20.84,27.55,30.35,6.10,31.38,1007.26,2038.19,2663.58,2717.57,2939.68,349.88,323.24,24.97,0000 0000 0000 0000 000000
2014-04-07 00:26:12,0.29,2.21,0.00,20.82,27.55,30.38,5.98,31.17,1007.20,2038.25,2663.22,2717.21,2939.27,349.06,322.47,24.97,0000 0000 0000 0000 000000
2014-04-07 00:27:12,0.30,2.21,0.00,20.82,27.55,30.38,6.00,31.33,1007.22,2038.27,2663.07,2717.07,2939.09,349.62,323.00,24.98,0000 0000 0000 0000 000000
2014-04-07 00:28:13,0.05,2.21,0.00,20.83,27.55,30.38,6.02,31.33,1007.25,2038.33,2662.62,2717.01,2939.01,350.37,323.69,24.98,0000 0000 0000 0000 000000
2014-04-07 00:29:13,0.19,2.21,0.00,20.84,27.55,30.35,6.07,31.33,1007.27,2038.40,2662.24,2716.84,2938.87,350.51,323.92,24.99,0000 0000 0000 0000 000000
2014-04-07 00:30:13,0.19,2.21,0.00,20.84,27.55,30.37,6.16,31.29,1007.27,2038.35,2662.05,2716.37,2938.41,350.73,323.79,25.00,0000 0000 0000 0000 000000
2014-04-07 00:31:13,0.21,2.22,0.00,20.84,27.55,30.34,6.16,31.42,1007.29,2038.26,2661.61,2716.14,2938.15,350.90,324.30,25.00,0000 0000 0000 0000 000000
2014-04-07 00:32:14,0.12,2.22,0.00,20.84,27.55,30.37,5.94,31.54,1007.29,2038.43,2661.22,2716.04,2938.03,350.07,323.42,25.01,0000 0000 0000 0000 000000
2014-04-07 00:33:14,0.24,2.22,0.00,20.86,27.55,30.35,6.18,31.46,1007.28,2038.61,2661.02,2715.86,2937.70,350.63,323.90,25.01,0000 0000 0000 0000 000000
2014-04-07 00:34:14,0.29,2.22,0.00,20.87,27.55,30.36,6.06,31.33,1007.28,2038.53,2660.55,2715.42,2937.28,350.12,323.44,25.02,0000 0000 0000 0000 000000
2014-04-07 00:35:15,0.21,2.22,0.00,20.86,27.55,30.38,6.15,31.42,1007.31,2038.45,2660.22,2715.15,2937.09,350.10,323.44,25.03,0000 0000 0000 0000 000000
2014-04-07 00:36:15,0.07,2.22,0.00,20.84,27.54,30.37,5.99,31.38,1007.34,2038.44,2660.00,2715.05,2937.00,350.27,323.61,25.03,0000 0000 0000 0000 000000
2014-04-07 00:37:15,0.10,2.22,0.00,20.85,27.54,30.35,6.28,31.46,1007.34,2038.52,2659.59,2714.77,2936.59,351.10,324.37,25.04,0000 0000 0000 0000 000000
2014-04-07 00:38:16,0.32,2.22,0.00,20.85,27.54,30.37,6.01,31.17,1007.34,2038.62,2659.21,2714.35,2936.22,349.12,322.54,25.04,0000 0000 0000 0000 000000
2014-04-07 00:39:16,0.29,2.23,0.00,20.85,27.54,30.36,6.18,31.13,1007.34,2038.66,2659.04,2714.13,2936.08,350.43,323.75,25.05,0000 0000 0000 0000 000000
2014-04-07 00:40:16,0.17,2.23,0.00,20.85,27.53,30.37,6.11,31.29,1007.34,2038.71,2658.65,2714.04,2936.01,350.06,323.40,25.05,0000 0000 0000 0000 000000
2014-04-07 00:41:16,0.16,2.23,0.00,20.86,27.53,30.36,6.13,31.29,1007.34,2038.67,2658.24,2713.85,2935.63,350.02,323.37,25.06,0000 0000 0000 0000 000000
2014-04-07 00:42:16,0.16,2.23,0.00,20.87,27.53,30.36,5.95,31.29,1007.34,2038.70,2658.05,2713.41,2935.25,349.72,322.88,25.07,0000 0000 0000 0000 000000
2014-04-07 00:43:16,0.26,2.23,0.00,20.87,27.52,30.36,6.05,31.42,1007.34,2038.76,2657.66,2713.17,2935.08,350.27,323.58,25.07,0000 0000 0000 0000 000000
2014-04-07 00:44:17,0.19,2.23,0.00,20.87,27.52,30.38,6.13,31.38,1007.34,2038.85,2657.27,2713.06,2934.98,349.68,323.10,25.08,0000 0000 0000 0000 000000
2014-04-07 00:45:17,0.21,2.23,0.00,20.87,27.52,30.37,6.13,31.42,1007.34,2038.91,2657.08,2712.97,2934.65,350.91,324.31,25.08,0000 0000 0000 0000 000000
2014-04-07 00:46:17,0.18,2.23,0.00,20.87,27.52,30.32,6.03,31.29,1007.34,2038.94,2656.70,2712.58,2934.25,350.47,324.02,25.09,0000 0000 0000 0000 000000
2014-04-07 00:47:17,0.26,2.24,0.00,20.88,27.52,30.34,6.10,31.21,1007.34,2038.91,2656.27,2712.22,2934.08,349.92,323.25,25.10,0000 0000 0000 0000 000000
2014-04-07 00:48:18,0.18,2.24,0.00,20.89,27.52,30.38,6.12,31.42,1007.34,2038.89,2656.09,2712.07,2933.93,350.14,323.44,25.10,0000 0000 0000 0000 000000
2014-04-07 00:49:18,0.07,2.24,0.00,20.89,27.52,30.40,6.15,31.54,1007.34,2038.91,2655.72,2711.96,2933.44,349.53,323.33,25.11,0000 0000 0000 0000 000000
2014-04-07 00:50:18,0.21,2.24,0.00,20.89,27.52,30.39,6.03,31.25,1007.34,2038.90,2655.28,2711.53,2933.16,350.35,323.74,25.11,0000 0000 0000 0000 000000
2014-04-07 00:51:18,0.23,2.24,0.00,20.89,27.52,30.37,5.93,31.42,1007.35,2038.93,2655.06,2711.20,2933.05,349.44,322.46,25.12,0000 0000 0000 0000 000000
2014-04-07 00:52:18,0.19,2.24,0.00,20.89,27.52,30.34,5.90,31.21,1007.34,2038.92,2654.57,2711.07,2932.70,349.57,322.49,25.13,0000 0000 0000 0000 000000
2014-04-07 00:53:19,0.18,2.24,0.00,20.89,27.52,30.32,6.00,31.13,1007.34,2038.90,2654.20,2710.94,2932.27,349.18,322.87,25.13,0000 0000 0000 0000 000000
2014-04-07 00:54:19,0.17,2.24,0.00,20.89,27.52,30.35,6.12,31.13,1007.34,2038.87,2653.92,2710.47,2932.09,349.71,323.04,25.14,0000 0000 0000 0000 000000
2014-04-07 00:55:19,0.19,2.24,0.00,20.90,27.52,30.36,6.13,31.29,1007.34,2038.86,2653.45,2710.17,2931.95,350.28,323.57,25.14,0000 0000 0000 0000 000000
2014-04-07 00:56:20,0.16,2.24,0.00,20.90,27.52,30.36,6.13,31.08,1007.34,2038.89,2653.17,2710.05,2931.53,350.24,323.53,25.15,0000 0000 0000 0000 000000
2014-04-07 00:57:20,0.19,2.25,0.00,20.90,27.52,30.36,6.11,31.17,1007.34,2038.91,2653.03,2709.95,2931.20,349.99,323.30,25.15,0000 0000 0000 0000 000000
2014-04-07 00:58:20,0.13,2.25,0.00,20.92,27.51,30.38,6.09,31.17,1007.35,2038.92,2652.54,2709.54,2931.07,349.78,323.08,25.16,0000 0000 0000 0000 000000
2014-04-07 00:59:20,0.24,2.25,0.00,20.92,27.51,30.39,6.04,31.29,1007.34,2038.95,2652.20,2709.21,2930.96,349.88,323.63,25.17,0000 0000 0000 0000 000000
2014-04-07 01:00:21,0.19,2.25,0.00,20.92,27.51,30.35,5.99,31.13,1007.34,2038.98,2652.03,2709.07,2930.57,349.36,323.05,25.17,0000 0000 0000 0000 000000
2014-04-07 01:01:21,0.15,2.25,0.00,20.93,27.50,30.37,6.12,31.13,1007.36,2038.98,2651.68,2709.01,2930.21,350.23,323.82,25.18,0000 0000 0000 0000 000000
2014-04-07 01:02:21,0.13,2.25,0.00,20.92,27.50,30.36,6.08,31.13,1007.34,2038.98,2651.26,2708.83,2930.07,350.04,323.32,25.18,0000 0000 0000 0000 000000
2014-04-07 01:03:21,0.16,2.25,0.00,20.92,27.50,30.35,6.02,31.04,1007.34,2038.97,2651.07,2708.37,2929.95,349.49,322.82,25.19,0000 0000 0000 0000 000000
2014-04-07 01:04:22,0.20,2.25,0.00,20.92,27.50,30.37,6.10,31.25,1007.34,2038.98,2650.76,2708.13,2929.57,351.02,324.04,25.20,0000 0000 0000 0000 000000
2014-04-07 01:05:22,0.18,2.25,0.00,20.93,27.50,30.38,6.11,31.38,1007.34,2038.98,2650.32,2708.04,2929.21,350.06,323.33,25.20,0000 0000 0000 0000 000000
2014-04-07 01:06:22,0.16,2.26,0.00,20.94,27.50,30.33,5.85,31.04,1007.36,2038.98,2650.10,2707.90,2929.07,349.44,322.74,25.21,0000 0000 0000 0000 000000
2014-04-07 01:07:22,0.10,2.26,0.00,20.94,27.50,30.35,5.94,31.42,1007.35,2038.97,2649.85,2707.51,2928.98,349.36,322.67,25.21,0000 0000 0000 0000 000000
2014-04-07 01:08:23,0.18,2.26,0.00,20.94,27.50,30.36,6.02,31.04,1007.35,2038.98,2649.34,2707.20,2928.60,349.57,322.86,25.22,0000 0000 0000 0000 000000
2014-04-07 01:09:23,0.24,2.26,0.00,20.94,27.50,30.36,6.04,31.25,1007.34,2038.99,2649.12,2707.07,2928.22,350.32,323.85,25.22,0000 0000 0000 0000 000000
2014-04-07 01:10:23,0.15,2.26,0.00,20.94,27.50,30.35,6.06,31.33,1007.36,2038.98,2648.86,2707.00,2928.08,350.07,323.80,25.23,0000 0000 0000 0000 000000
2014-04-07 01:11:23,0.09,2.26,0.00,20.95,27.50,30.36,5.88,31.21,1007.36,2038.98,2648.40,2706.62,2927.99,349.44,322.98,25.24,0000 0000 0000 0000 000000
2014-04-07 01:12:24,0.21,2.26,0.00,20.94,27.50,30.34,6.00,31.21,1007.35,2038.99,2648.11,2706.23,2927.64,350.03,323.28,25.24,0000 0000 0000 0000 000000
2014-04-07 01:13:24,0.21,2.26,0.00,20.94,27.50,30.33,5.91,31.04,1007.35,2038.96,2647.63,2706.08,2927.25,349.63,322.91,25.25,0000 0000 0000 0000 000000
2014-04-07 01:14:24,0.16,2.26,0.00,20.95,27.50,30.33,6.07,31.21,1007.34,2038.97,2647.24,2706.02,2927.08,350.16,323.40,25.25,0000 0000 0000 0000 000000
2014-04-07 01:15:25,0.13,2.26,0.00,20.97,27.50,30.35,6.01,31.04,1007.36,2038.98,2647.09,2705.70,2926.95,350.32,324.00,25.26,0000 0000 0000 0000 000000
2014-04-07 01:16:25,0.16,2.27,0.00,20.97,27.50,30.35,6.06,31.46,1007.37,2038.97,2646.75,2705.27,2926.49,349.96,323.19,25.27,0000 0000 0000 0000 000000
2014-04-07 01:17:25,0.24,2.27,0.00,20.97,27.50,30.37,6.02,31.33,1007.35,2038.98,2646.29,2705.10,2926.17,350.12,323.35,25.27,0000 0000 0000 0000 000000
2014-04-07 01:18:25,0.17,2.27,0.00,20.96,27.50,30.39,6.12,31.33,1007.36,2038.99,2646.09,2705.03,2926.05,350.22,323.55,25.28,0000 0000 0000 0000 000000
2014-04-07 01:19:26,0.08,2.27,0.00,20.95,27.50,30.37,5.99,31.46,1007.35,2038.98,2646.01,2704.84,2925.99,349.47,322.73,25.28,0000 0000 0000 0000 000000
2014-04-07 01:20:26,0.11,2.27,0.00,20.94,27.50,30.38,6.09,31.33,1007.35,2038.98,2645.64,2704.44,2925.63,350.55,323.83,25.29,0000 0000 0000 0000 000000
2014-04-07 01:21:26,0.23,2.27,0.00,20.94,27.50,30.37,6.15,31.17,1007.35,2038.99,2645.24,2704.16,2925.23,350.66,323.87,25.29,0000 0000 0000 0000 000000
2014-04-07 01:22:26,0.21,2.27,0.00,20.94,27.50,30.37,6.08,31.33,1007.35,2038.99,2645.02,2704.06,2925.08,350.16,323.39,25.30,0000 0000 0000 0000 000000
2014-04-07 01:23:27,0.10,2.27,0.00,20.94,27.50,30.35,5.89,31.25,1007.35,2038.99,2644.59,2703.98,2924.97,348.98,322.32,25.31,0000 0000 0000 0000 000000
2014-04-07 01:24:27,0.13,2.27,0.00,20.94,27.50,30.32,6.06,31.38,1007.38,2038.98,2644.25,2703.60,2924.62,350.01,323.08,25.31,0000 0000 0000 0000 000000
2014-04-07 01:25:27,0.21,2.27,0.00,20.96,27.50,30.32,6.11,31.25,1007.38,2038.98,2644.04,2703.22,2924.23,349.93,323.18,25.32,0000 0000 0000 0000 000000
2014-04-07 01:26:28,0.21,2.28,0.00,20.97,27.50,30.34,6.14,31.33,1007.37,2038.98,2643.59,2703.08,2924.08,349.91,323.15,25.32,0000 0000 0000 0000 000000
2014-04-07 01:27:28,0.13,2.28,0.00,20.99,27.50,30.33,6.00,31.25,1007.38,2038.96,2643.24,2702.99,2924.01,349.99,323.35,25.33,0000 0000 0000 0000 000000
2014-04-07 01:28:28,0.11,2.28,0.00,20.99,27.50,30.35,6.09,31.25,1007.41,2038.98,2643.06,2702.63,2923.64,350.80,323.72,25.34,0000 0000 0000 0000 000000
2014-04-07 01:29:28,0.22,2.28,0.00,21.00,27.50,30.35,6.11,31.25,1007.38,2038.98,2642.56,2702.24,2923.25,349.85,323.13,25.34,0000 0000 0000 0000 000000
2014-04-07 01:30:29,0.24,2.28,0.00,20.99,27.50,30.34,5.94,31.54,1007.38,2038.98,2642.19,2702.08,2923.08,349.59,322.83,25.35,0000 0000 0000 0000 000000
2014-04-07 01:31:29,0.12,2.28,0.00,20.99,27.50,30.35,6.05,31.38,1007.40,2038.98,2642.00,2701.99,2922.86,350.36,323.55,25.35,0000 0000 0000 0000 000000
2014-04-07 01:32:29,0.12,2.28,0.00,20.99,27.50,30.34,5.97,31.63,1007.38,2038.98,2641.64,2701.68,2922.46,350.08,323.28,25.36,0000 0000 0000 0000 000000
2014-04-07 01:33:30,0.21,2.28,0.00,20.99,27.50,30.34,6.13,31.42,1007.38,2038.99,2641.26,2701.32,2922.19,350.65,324.12,25.37,0000 0000 0000 0000 000000
2014-04-07 01:34:30,0.22,2.28,0.00,20.99,27.50,30.34,6.05,31.13,1007.44,2038.98,2641.09,2701.12,2922.07,350.64,323.82,25.37,0000 0000 0000 0000 000000
2014-04-07 01:35:30,0.10,2.28,0.00,20.99,27.50,30.33,6.06,31.46,1007.42,2038.98,2641.01,2701.04,2922.02,349.60,322.86,25.38,0000 0000 0000 0000 000000
2014-04-07 01:36:31,0.05,2.28,0.00,20.99,27.50,30.34,5.98,31.50,1007.49,2038.99,2640.65,2700.99,2921.91,350.27,323.45,25.38,0000 0000 0000 0000 000000
2014-04-07 01:37:31,0.11,2.29,0.00,21.00,27.50,30.34,6.04,31.21,1007.53,2038.98,2640.25,2700.73,2921.46,350.58,323.78,25.39,0000 0000 0000 0000 000000
2014-04-07 01:38:31,0.22,2.29,0.00,21.01,27.50,30.34,6.06,31.33,1007.56,2038.99,2640.06,2700.30,2921.16,350.21,323.44,25.39,0000 0000 0000 0000 000000
2014-04-07 01:39:32,0.21,2.29,0.00,21.01,27.50,30.34,5.98,31.25,1007.57,2038.99,2639.72,2700.13,2921.05,349.10,322.26,25.40,0000 0000 0000 0000 000000
2014-04-07 01:40:32,0.13,2.29,0.00,21.00,27.50,30.34,5.96,31.46,1007.63,2038.99,2639.27,2700.03,2920.78,349.15,322.50,25.41,0000 0000 0000 0000 000000
2014-04-07 01:41:32,0.15,2.29,0.00,21.00,27.50,30.33,6.18,31.54,1007.65,2038.99,2639.09,2699.83,2920.35,350.27,323.55,25.41,0000 0000 0000 0000 000000
2014-04-07 01:42:32,0.17,2.29,0.00,20.99,27.50,30.34,6.07,31.38,1007.72,2038.97,2638.74,2699.36,2920.14,349.63,322.98,25.42,0000 0000 0000 0000 000000
2014-04-07 01:43:33,0.22,2.29,0.00,20.99,27.50,30.35,6.08,31.46,1007.80,2038.98,2638.30,2699.14,2920.04,349.57,322.95,25.42,0000 0000 0000 0000 000000
2014-04-07 01:44:33,0.16,2.29,0.00,20.99,27.50,30.36,6.20,31.50,1007.82,2038.99,2638.08,2699.05,2919.85,350.61,324.06,25.43,0000 0000 0000 0000 000000
2014-04-07 01:45:33,0.11,2.29,0.00,21.00,27.50,30.34,6.09,31.42,1007.80,2038.99,2637.83,2698.97,2919.44,350.44,323.80,25.44,0000 0000 0000 0000 000000
2014-04-07 01:46:34,0.15,2.29,0.00,21.02,27.50,30.35,6.13,31.38,1007.81,2038.99,2637.35,2698.65,2919.16,350.07,323.41,25.44,0000 0000 0000 0000 000000
2014-04-07 01:47:34,0.21,2.30,0.00,21.02,27.50,30.35,6.05,31.58,1007.83,2038.99,2637.12,2698.24,2919.04,350.56,323.84,25.45,0000 0000 0000 0000 000000
2014-04-07 01:48:34,0.18,2.30,0.00,21.02,27.50,30.36,5.91,31.50,1007.82,2038.99,2636.98,2698.08,2918.96,350.30,323.60,25.45,0000 0000 0000 0000 000000
2014-04-07 01:49:35,0.12,2.30,0.00,21.02,27.50,30.35,6.11,31.46,1007.80,2038.99,2636.51,2698.01,2918.54,349.77,323.02,25.46,0000 0000 0000 0000 000000
2014-04-07 01:50:35,0.16,2.30,0.00,21.02,27.50,30.33,6.11,31.33,1007.81,2038.99,2636.18,2697.80,2918.20,350.58,323.86,25.47,0000 0000 0000 0000 000000
2014-04-07 01:51:35,0.18,2.30,0.00,21.03,27.50,30.36,5.98,31.17,1007.81,2038.99,2636.02,2697.33,2918.07,349.74,323.08,25.47,0000 0000 0000 0000 000000
2014-04-07 01:52:36,0.18,2.30,0.00,21.04,27.50,30.36,6.07,31.17,1007.82,2038.99,2635.58,2697.12,2917.99,349.66,322.97,25.48,0000 0000 0000 0000 000000
2014-04-07 01:53:36,0.15,2.30,0.00,21.04,27.50,30.37,6.13,31.25,1007.82,2038.99,2635.22,2697.04,2917.65,350.79,324.04,25.48,0000 0000 0000 0000 000000
2014-04-07 01:54:36,0.14,2.30,0.00,21.04,27.50,30.36,6.10,31.46,1007.83,2038.99,2635.08,2696.97,2917.26,350.42,323.70,25.49,0000 0000 0000 0000 000000
2014-04-07 01:55:36,0.13,2.30,0.00,21.04,27.50,30.38,6.07,31.33,1007.83,2038.98,2634.79,2696.65,2917.09,349.75,323.07,25.49,0000 0000 0000 0000 000000
2014-04-07 01:56:37,0.18,2.31,0.00,21.03,27.50,30.35,6.21,31.54,1007.83,2038.98,2634.31,2696.28,2917.02,350.52,323.33,25.50,0000 0000 0000 0000 000000
2014-04-07 01:57:37,0.19,2.31,0.00,21.04,27.50,30.34,6.11,31.38,1007.83,2038.98,2634.09,2696.10,2916.61,350.21,323.19,25.51,0000 0000 0000 0000 000000
2014-04-07 01:58:37,0.14,2.31,0.00,21.04,27.50,30.36,5.96,31.29,1007.82,2038.98,2633.89,2696.02,2916.23,350.27,323.43,25.51,0000 0000 0000 0000 000000
2014-04-07 01:59:37,0.14,2.31,0.00,21.04,27.50,30.36,6.05,31.08,1007.83,2038.98,2633.39,2695.87,2916.08,350.00,323.60,25.52,0000 0000 0000 0000 000000
2014-04-07 02:00:38,0.17,2.31,0.00,21.06,27.50,30.36,6.04,31.46,1007.82,2038.99,2633.13,2695.45,2916.01,349.87,323.15,25.52,0000 0000 0000 0000 000000
2014-04-07 02:01:38,0.18,2.31,0.00,21.06,27.50,30.36,5.88,31.42,1007.83,2038.99,2633.01,2695.16,2915.64,349.75,323.30,25.53,0000 0000 0000 0000 000000
2014-04-07 02:02:38,0.17,2.31,0.00,21.06,27.50,30.36,6.04,31.17,1007.83,2038.98,2632.66,2695.05,2915.26,349.98,323.26,25.54,0000 0000 0000 0000 000000
2014-04-07 02:03:39,0.14,2.31,0.00,21.07,27.51,30.39,6.13,31.21,1007.83,2038.98,2632.26,2694.88,2915.09,350.78,323.63,25.54,0000 0000 0000 0000 000000
2014-04-07 02:04:39,0.16,2.31,0.00,21.09,27.51,30.34,6.09,31.50,1007.83,2038.96,2632.02,2694.42,2915.01,351.32,324.47,25.55,0000 0000 0000 0000 000000
2014-04-07 02:05:39,0.18,2.31,0.00,21.09,27.52,30.32,5.98,31.21,1007.83,2038.95,2631.63,2694.17,2914.63,349.63,322.91,25.55,0000 0000 0000 0000 000000
2014-04-07 02:06:40,0.20,2.31,0.00,21.08,27.52,30.35,6.15,31.33,1007.83,2038.97,2631.24,2694.06,2914.23,350.85,324.05,25.56,0000 0000 0000 0000 000000
2014-04-07 02:07:40,0.16,2.31,0.00,21.08,27.52,30.34,6.14,31.42,1007.83,2038.98,2631.08,2693.99,2914.08,349.90,323.17,25.56,0000 0000 0000 0000 000000
2014-04-07 02:08:40,0.09,2.32,0.00,21.09,27.52,30.34,5.99,31.13,1007.83,2038.97,2630.80,2693.70,2914.02,349.80,322.84,25.57,0000 0000 0000 0000 000000
2014-04-07 02:09:41,0.16,2.32,0.00,21.10,27.52,30.36,6.14,31.42,1007.83,2038.96,2630.35,2693.28,2913.83,350.19,323.61,25.58,0000 0000 0000 0000 000000
2014-04-07 02:10:41,0.21,2.32,0.00,21.12,27.52,30.34,6.16,31.29,1007.84,2038.97,2630.13,2693.10,2913.44,350.51,323.69,25.58,0000 0000 0000 0000 000000
2014-04-07 02:11:41,0.14,2.32,0.00,21.13,27.52,30.33,5.92,31.33,1007.83,2038.96,2629.92,2693.02,2913.16,348.77,322.07,25.59,0000 0000 0000 0000 000000
2014-04-07 02:12:41,0.12,2.32,0.00,21.12,27.52,30.34,5.92,31.21,1007.83,2038.96,2629.44,2692.77,2913.04,349.24,322.67,25.59,0000 0000 0000 0000 000000
2014-04-07 02:13:42,0.18,2.32,0.00,21.14,27.52,30.33,6.11,31.54,1007.83,2038.96,2629.15,2692.32,2912.68,350.18,323.21,25.60,0000 0000 0000 0000 000000
2014-04-07 02:14:42,0.23,2.32,0.00,21.14,27.52,30.32,6.04,31.50,1007.83,2038.95,2628.99,2692.11,2912.28,349.61,322.84,25.61,0000 0000 0000 0000 000000
2014-04-07 02:15:42,0.17,2.32,0.00,21.13,27.52,30.37,6.06,31.29,1007.85,2038.96,2628.49,2692.02,2912.10,349.72,323.23,25.61,0000 0000 0000 0000 000000
2014-04-07 02:16:43,0.11,2.32,0.00,21.13,27.52,30.36,5.96,31.29,1007.83,2038.96,2628.19,2691.94,2912.04,349.69,322.94,25.62,0000 0000 0000 0000 000000
2014-04-07 02:17:43,0.12,2.32,0.00,21.14,27.52,30.37,6.07,31.29,1007.85,2038.95,2628.05,2691.58,2911.89,350.90,324.26,25.62,0000 0000 0000 0000 000000
2014-04-07 02:18:43,0.16,2.32,0.00,21.13,27.52,30.34,5.98,31.29,1007.85,2038.96,2627.74,2691.24,2911.43,349.62,323.14,25.63,0000 0000 0000 0000 000000
2014-04-07 02:19:44,0.22,2.33,0.00,21.14,27.52,30.35,6.09,31.38,1007.84,2038.98,2627.29,2691.08,2911.16,350.47,323.90,25.64,0000 0000 0000 0000 000000
2014-04-07 02:20:44,0.18,2.33,0.00,21.16,27.52,30.33,6.13,31.29,1007.84,2038.95,2627.10,2691.00,2911.05,350.04,323.21,25.64,0000 0000 0000 0000 000000
2014-04-07 02:21:44,0.07,2.33,0.00,21.17,27.53,30.32,5.99,31.08,1007.86,2038.97,2626.80,2690.85,2910.87,349.64,322.84,25.65,0000 0000 0000 0000 000000
2014-04-07 02:22:44,0.19,2.33,0.00,21.17,27.53,30.35,6.14,31.25,1007.83,2038.99,2626.33,2690.46,2910.47,349.82,322.99,25.65,0000 0000 0000 0000 000000
2014-04-07 02:23:45,0.25,2.33,0.00,21.17,27.54,30.33,6.13,31.25,1007.84,2038.96,2626.12,2690.17,2910.17,350.29,323.43,25.66,0000 0000 0000 0000 000000
2014-04-07 02:24:45,0.11,2.33,0.00,21.17,27.54,30.31,6.07,31.46,1007.85,2038.93,2625.86,2690.06,2910.06,349.99,323.16,25.66,0000 0000 0000 0000 000000
2014-04-07 02:25:45,0.11,2.33,0.00,21.18,27.55,30.30,6.09,31.21,1007.87,2038.93,2625.34,2689.94,2909.93,350.45,323.42,25.67,0000 0000 0000 0000 000000
2014-04-07 02:26:46,0.16,2.33,0.00,21.19,27.55,30.33,6.03,31.00,1007.86,2038.97,2625.12,2689.59,2909.56,350.11,323.25,25.68,0000 0000 0000 0000 000000
2014-04-07 02:27:46,0.23,2.34,0.00,21.21,27.55,30.33,6.09,31.33,1007.85,2038.97,2624.95,2689.22,2909.21,349.59,323.03,25.68,0000 0000 0000 0000 000000
2014-04-07 02:28:46,0.17,2.34,0.00,21.22,27.55,30.35,5.96,31.21,1007.88,2038.88,2624.43,2689.07,2909.06,349.70,322.85,25.69,0000 0000 0000 0000 000000
2014-04-07 02:29:46,0.06,2.34,0.00,21.22,27.55,30.36,6.15,31.46,1007.91,2038.79,2624.15,2688.94,2908.74,350.99,323.59,25.69,0000 0000 0000 0000 000000
2014-04-07 02:30:47,0.08,2.34,0.00,21.22,27.55,30.38,6.06,31.38,1007.97,2038.76,2624.03,2688.50,2908.30,350.23,323.53,25.70,0000 0000 0000 0000 000000
2014-04-07 02:31:47,0.23,2.34,0.00,21.23,27.55,30.32,6.08,31.50,1008.04,2038.83,2623.53,2688.19,2908.11,349.82,322.91,25.71,0000 0000 0000 0000 000000
2014-04-07 02:32:47,0.25,2.34,0.00,21.24,27.55,30.32,6.02,31.58,1008.12,2038.83,2623.19,2688.07,2908.03,350.36,323.83,25.71,0000 0000 0000 0000 000000
2014-04-07 02:33:47,0.12,2.34,0.00,21.24,27.55,30.33,6.13,31.33,1008.13,2038.85,2623.07,2688.02,2907.92,350.15,322.85,25.72,0000 0000 0000 0000 000000
2014-04-07 02:34:48,0.08,2.34,0.00,21.25,27.56,30.32,6.05,31.33,1008.18,2038.92,2623.02,2687.94,2907.62,350.25,323.42,25.72,0000 0000 0000 0000 000000
2014-04-07 02:35:48,0.14,2.34,0.00,21.25,27.56,30.32,6.05,31.21,1008.23,2038.93,2622.73,2687.57,2907.24,349.86,323.51,25.73,0000 0000 0000 0000 000000